Regional Weather Roundup
Issued by NWS Sterling, VA

Current Version | Previous Version | Text Only | Print | Product List | Glossary On
Versions: 1 2 3 4 5 6 7 8 9 10 11 12 13 14 15 16 17 18 19 20 21 22 23 24 25 26 27 28 29 30 31 32 33 34 35 36 37 38 39 40 41 42 43 44 45 46 47 48 49 50
000
ASUS41 KLWX 270710
RWRLWX

REGIONAL WEATHER ROUNDUP
NATIONAL WEATHER SERVICE BALTIMORE MD/WASHINGTON DC
300 AM EDT WED MAY 27 2015

Note: "FAIR" indicates few or no clouds below 12,000 feet
with no significant weather and/or obstructions to visibility.
 TC=TEMPERATURE CELSIUS

 * =Non NWS site. Station does not report precipitation (e.g. rain,
    snow, etc.), thunder, or fog.

DCZ001-MDZ009-015-VAZ040>042-051-053>054-270800-
WASHINGTON METRO

CITY           SKY/WX    TMP DP  RH WIND       PRES   REMARKS
WASHINGTON NAT MOCLDY    75  68  78 S9        30.16S
DULLES         MOCLDY    73  66  78 S7        30.14F
ANDREWS AFB    PTCLDY    72  69  90 S8        30.15S
FT BELVOIR     PTCLDY    72  67  84 SE5       30.15S
QUANTICO       CLEAR     76  68  76 SW10      30.16S
COLLEGE PARK*  PTCLDY    73  68  83 CALM      30.15S
LEESBURG*      CLEAR     73  70  88 S10G16    30.15F
MANASSAS*      CLEAR     70  66  88 S6        30.15S
GAITHERSBURG*  CLEAR     72  64  78 SE6       30.19S

$$

MDZ006>007-011-014-270800-
BALTIMORE METRO

CITY           SKY/WX    TMP DP  RH WIND       PRES   REMARKS
BWI AIRPORT    MOCLDY    71  66  84 S5        30.15S
MD SCIENCE CTR   N/A     73  66  78 MISG      30.16S
MARTIN STATE   PTCLDY    72  70  94 SE5       30.17S
ANNAPOLIS      PTCLDY    70  66  87 S7        30.15F
FORT MEADE*    PTCLDY    64  63  94 CALM      30.18S

$$

MDZ012-015-019>023-270800-
MARYLAND EASTERN SHORE

CITY           SKY/WX    TMP DP  RH WIND       PRES   REMARKS
OCEAN CITY     CLEAR     70  65  84 SW14G23   30.22S
SALISBURY      CLEAR     69  66  90 S8        30.20S
BAY BRIDGE AP*   N/A    N/A N/A N/A S12       30.16S
CAMBRIDGE*     PTCLDY    72  66  83 S8        30.18S
EASTON*        PTCLDY    74  70  89 SW12      30.21S

$$

MDZ017>025-270800-
SOUTHERN MARYLAND

CITY           SKY/WX    TMP DP  RH WIND       PRES   REMARKS
PATUXENT RIVER CLEAR     72  67  84 SW12      30.17S
ST INIGOES     CLEAR     73  67  81 S12       30.18S
LEONARDTOWN*   PTCLDY    72  64  78 S9        30.19S

$$

MDZ003>005-270800-
NORTH CENTRAL MARYLAND

CITY           SKY/WX    TMP DP  RH WIND       PRES   REMARKS
FREDERICK*     CLEAR     72  68  88 S6        30.16S
HAGERSTOWN APT CLEAR     73  68  84 S9        30.13S
WESTMINSTER*   PTCLDY    72  66  83 S9        30.16S

$$

MDZ501>502-270800-
WESTERN MARYLAND

CITY           SKY/WX    TMP DP  RH WIND       PRES   REMARKS
OAKLAND*       PTCLDY    64 N/A N/A SW9G16    30.19S
CUMBERLAND*    PTCLDY    66  66 100 CALM      30.15S

$$

VAZ025>031-270800-
SHENANDOAH VALLEY

CITY           SKY/WX    TMP DP  RH WIND       PRES   REMARKS
WINCHESTER*    CLEAR     68  63  83 CALM      30.13S FOG
FRONT ROYAL*   FAIR      68  66  94 CALM      30.13S
LURAY*         FAIR      70  70 100 SW5       30.14F
NEW MARKET*    FAIR      65  64  99 CALM      30.14S
STAUNTON*      PTCLDY    65  64  96 CALM      30.19F FOG
WAYNESBORO*    FAIR      68  65  92 S3        30.18F

$$

WVZ021-048>050-054>055-270800-
EASTERN WEST VIRGINIA PANHANDLE

CITY           SKY/WX    TMP DP  RH WIND       PRES   REMARKS
MARTINSBURG    PTCLDY    69  67  93 S5        30.13F
PETERSBURG*    PTCLDY    70  62  74 SW6       30.13F

$$

VAZ036>039-050-270800-
CENTRAL FOOTHILLS

CITY           SKY/WX    TMP DP  RH WIND       PRES   REMARKS
CHARLOTTESVILL PTCLDY    72  67  84 S8        30.15F
CULPEPER*      MOCLDY    71  67  85 S5        30.15F
ORANGE*        PTCLDY    72  68  88 CALM      30.17S
GORDONSVILLE*  CLOUDY    71  67  88 SW5       30.15S
WARRENTON*     FAIR      71  68  89 S3        30.15S

$$

VAZ055>057-270800-
NORTH AND CENTRAL PIEDMONT

CITY           SKY/WX    TMP DP  RH WIND       PRES   REMARKS
FREDERICKSBRG* PTCLDY    76  69  81 S7        30.15S
STAFFORD*      PTCLDY    72  67  83 S6        30.20S

$$

NCZ024-NYZ072-PAZ021-071-VAZ022-071-270800-
OTHER REGIONAL OBSERVATIONS

CITY           SKY/WX    TMP DP  RH WIND       PRES   REMARKS
NEW YORK CITY  MOCLDY    72  61  68 SW6       30.18S
PHILADELPHIA   PTCLDY    71  65  81 S8        30.17S
PITTSBURGH     CLOUDY    66  64  93 S8        30.09S
ROANOKE        CLOUDY    69  66  90 NW5       30.17F
RICHMOND       MOCLDY    74  68  81 S12       30.18F
RALEIGH        MOCLDY    73  68  84 SW9       30.20F

$$

ANZ530>537-270800-
MARINE OBSERVATIONS

STATION/POSITION TIME  TEMP    WIND        PRES
                       AIR SEA DIR/SP/G
                 (UTC) (F)     (DEG/KT/KT) (MB)
THOMAS PT LIGHT  0700   70 67  170/ 16/ 17 1021.6F
BALT KEY BRIDGE  0600   72                   N/A
COVE POINT       0600   72                   N/A
LEWISETTA        0600   74                   N/A
SOLOMONS ISLAND  0606      70                N/A
PINEY POINT      0600          210/ 12/ 14   N/A

$$



USA.gov is the U.S. government's official web portal to all federal, state and local government web resources and services.